Time,TemperatureF,DewpointF,PressureIn,WindDirection,WindDirectionDegrees,WindSpeedMPH,WindSpeedGustMPH,Humidity,HourlyPrecipIn,Conditions,Clouds,dailyrainin,SoftwareType,DateUTC
2013-01-23 00:02:00,28.0,7.0,-100.00,ESE,120,9.0,17.0,40,-99.99,,,-99.99,,2013-01-23 07:02:00,
2013-01-23 00:11:00,28.0,7.0,-100.00,ESE,110,17.0,18.0,39,-99.99,,,-99.99,,2013-01-23 07:11:00,
2013-01-23 00:22:00,33.0,7.0,-100.00,SSE,150,5.0,13.0,32,-99.99,,,-99.99,,2013-01-23 07:22:00,
2013-01-23 00:32:00,36.0,7.0,-100.00,SE,130,6.0,12.0,29,-99.99,,,-99.99,,2013-01-23 07:32:00,
2013-01-23 00:42:00,32.0,6.0,-100.00,ESE,120,9.0,11.0,32,-99.99,,,-99.99,,2013-01-23 07:42:00,
2013-01-23 00:52:00,32.0,7.0,-100.00,SSW,205,9.0,14.0,33,-99.99,,,-99.99,,2013-01-23 07:52:00,
2013-01-23 01:01:00,36.0,7.0,-100.00,SW,220,17.0,19.0,29,-99.99,,,-99.99,,2013-01-23 08:01:00,
2013-01-23 01:11:00,36.0,7.0,-100.00,SW,220,16.0,21.0,29,-99.99,,,-99.99,,2013-01-23 08:11:00,
2013-01-23 01:22:00,35.0,6.0,-100.00,SW,220,16.0,21.0,28,-99.99,,,-99.99,,2013-01-23 08:22:00,
2013-01-23 01:32:00,37.0,6.0,-100.00,SW,230,19.0,24.0,27,-99.99,,,-99.99,,2013-01-23 08:32:00,
2013-01-23 01:42:00,36.0,6.0,-100.00,SW,230,17.0,24.0,27,-99.99,,,-99.99,,2013-01-23 08:42:00,
2013-01-23 01:52:00,40.0,5.0,-100.00,SW,235,16.0,22.0,22,-99.99,,,-99.99,,2013-01-23 08:52:00,
2013-01-23 02:02:00,41.0,3.0,-100.00,WSW,240,22.0,26.0,19,-99.99,,,-99.99,,2013-01-23 09:02:00,
2013-01-23 02:12:00,42.0,2.0,-100.00,WSW,250,24.0,29.0,18,-99.99,,,-99.99,,2013-01-23 09:12:00,
2013-01-23 02:22:00,40.0,2.0,-100.00,SW,235,26.0,29.0,19,-99.99,,,-99.99,,2013-01-23 09:22:00,
2013-01-23 02:32:00,40.0,2.0,-100.00,SW,235,24.0,30.0,19,-99.99,,,-99.99,,2013-01-23 09:32:00,
2013-01-23 02:42:00,40.0,2.0,-100.00,SW,230,24.0,30.0,19,-99.99,,,-99.99,,2013-01-23 09:42:00,
2013-01-23 02:52:00,39.0,2.0,-100.00,SW,225,21.0,29.0,21,-99.99,,,-99.99,,2013-01-23 09:52:00,
2013-01-23 03:02:00,38.0,3.0,-100.00,SW,225,26.0,29.0,21,-99.99,,,-99.99,,2013-01-23 10:02:00,
2013-01-23 03:11:00,38.0,2.0,-100.00,SW,230,26.0,29.0,21,-99.99,,,-99.99,,2013-01-23 10:11:00,
2013-01-23 03:22:00,38.0,3.0,-100.00,SW,230,23.0,27.0,21,-99.99,,,-99.99,,2013-01-23 10:22:00,
2013-01-23 03:32:00,40.0,2.0,-100.00,SW,230,24.0,29.0,20,-99.99,,,-99.99,,2013-01-23 10:32:00,
2013-01-23 03:42:00,40.0,2.0,-100.00,SW,230,28.0,32.0,19,-99.99,,,-99.99,,2013-01-23 10:42:00,
2013-01-23 03:52:00,38.0,2.0,-100.00,SW,230,24.0,29.0,21,-99.99,,,-99.99,,2013-01-23 10:52:00,
2013-01-23 04:02:00,38.0,2.0,-100.00,SW,230,25.0,29.0,21,-99.99,,,-99.99,,2013-01-23 11:02:00,
2013-01-23 04:11:00,38.0,2.0,-100.00,SW,230,24.0,29.0,21,-99.99,,,-99.99,,2013-01-23 11:11:00,
2013-01-23 04:22:00,38.0,2.0,-100.00,SW,230,26.0,31.0,21,-99.99,,,-99.99,,2013-01-23 11:22:00,
2013-01-23 04:32:00,38.0,1.0,-100.00,SW,225,25.0,31.0,20,-99.99,,,-99.99,,2013-01-23 11:32:00,
2013-01-23 04:42:00,37.0,1.0,-100.00,SW,225,25.0,30.0,21,-99.99,,,-99.99,,2013-01-23 11:42:00,
2013-01-23 04:52:00,36.0,1.0,-100.00,SW,220,22.0,29.0,21,-99.99,,,-99.99,,2013-01-23 11:52:00,
2013-01-23 05:02:00,33.0,1.0,-100.00,SSW,210,21.0,26.0,25,-99.99,,,-99.99,,2013-01-23 12:02:00,
2013-01-23 05:12:00,32.0,2.0,-100.00,SW,215,24.0,29.0,27,-99.99,,,-99.99,,2013-01-23 12:12:00,
2013-01-23 05:22:00,33.0,2.0,-100.00,SW,220,25.0,30.0,27,-99.99,,,-99.99,,2013-01-23 12:22:00,
2013-01-23 05:32:00,31.0,2.0,-100.00,SSW,210,24.0,33.0,28,-99.99,,,-99.99,,2013-01-23 12:32:00,
2013-01-23 05:42:00,29.0,3.0,-100.00,SSW,205,25.0,28.0,31,-99.99,,,-99.99,,2013-01-23 12:42:00,
2013-01-23 05:52:00,29.0,3.0,-100.00,SSW,210,29.0,33.0,32,-99.99,,,-99.99,,2013-01-23 12:52:00,
2013-01-23 06:03:00,30.0,4.0,-100.00,SW,215,28.0,34.0,31,-99.99,,,-99.99,,2013-01-23 13:03:00,
2013-01-23 06:11:00,31.0,4.0,-100.00,SW,220,29.0,34.0,31,-99.99,,,-99.99,,2013-01-23 13:11:00,
2013-01-23 06:22:00,31.0,4.0,-100.00,SW,220,27.0,34.0,30,-99.99,,,-99.99,,2013-01-23 13:22:00,
2013-01-23 06:33:00,32.0,4.0,-100.00,SW,220,26.0,33.0,29,-99.99,,,-99.99,,2013-01-23 13:33:00,
2013-01-23 06:42:00,32.0,4.0,-100.00,SW,220,28.0,34.0,29,-99.99,,,-99.99,,2013-01-23 13:42:00,
2013-01-23 06:52:00,32.0,3.0,-100.00,SW,220,27.0,32.0,29,-99.99,,,-99.99,,2013-01-23 13:52:00,
2013-01-23 07:02:00,31.0,3.0,-100.00,SW,220,27.0,34.0,29,-99.99,,,-99.99,,2013-01-23 14:02:00,
2013-01-23 07:11:00,31.0,3.0,-100.00,SW,220,27.0,34.0,29,-99.99,,,-99.99,,2013-01-23 14:11:00,
2013-01-23 07:23:00,31.0,3.0,-100.00,SW,220,30.0,36.0,29,-99.99,,,-99.99,,2013-01-23 14:23:00,
2013-01-23 07:33:00,30.0,2.0,-100.00,SW,220,29.0,35.0,29,-99.99,,,-99.99,,2013-01-23 14:33:00,
2013-01-23 07:42:00,31.0,3.0,-100.00,SW,220,27.0,35.0,29,-99.99,,,-99.99,,2013-01-23 14:42:00,
2013-01-23 07:52:00,32.0,3.0,-100.00,SW,220,25.0,31.0,29,-99.99,,,-99.99,,2013-01-23 14:52:00,
2013-01-23 08:02:00,31.0,3.0,-100.00,SW,215,24.0,31.0,29,-99.99,,,-99.99,,2013-01-23 15:02:00,
2013-01-23 08:12:00,31.0,3.0,-100.00,SW,220,27.0,34.0,29,-99.99,,,-99.99,,2013-01-23 15:12:00,
2013-01-23 08:22:00,31.0,3.0,-100.00,SW,220,27.0,32.0,29,-99.99,,,-99.99,,2013-01-23 15:22:00,
2013-01-23 08:33:00,31.0,3.0,-100.00,SSW,210,26.0,31.0,29,-99.99,,,-99.99,,2013-01-23 15:33:00,
2013-01-23 08:42:00,32.0,4.0,-100.00,SSW,195,19.0,29.0,29,-99.99,,,-99.99,,2013-01-23 15:42:00,
2013-01-23 08:52:00,30.0,3.0,-100.00,South,180,18.0,27.0,31,-99.99,,,-99.99,,2013-01-23 15:52:00,
2013-01-23 09:02:00,33.0,5.0,-100.00,SSW,195,17.0,27.0,29,-99.99,,,-99.99,,2013-01-23 16:02:00,
2013-01-23 09:11:00,35.0,5.0,-100.00,SW,215,23.0,27.0,27,-99.99,,,-99.99,,2013-01-23 16:11:00,
2013-01-23 09:22:00,35.0,4.0,-100.00,SW,225,27.0,35.0,26,-99.99,,,-99.99,,2013-01-23 16:22:00,
2013-01-23 09:32:00,34.0,4.0,-100.00,SW,225,27.0,34.0,27,-99.99,,,-99.99,,2013-01-23 16:32:00,
2013-01-23 09:42:00,34.0,4.0,-100.00,SW,220,29.0,35.0,27,-99.99,,,-99.99,,2013-01-23 16:42:00,
2013-01-23 09:52:00,34.0,4.0,-100.00,SW,220,27.0,34.0,28,-99.99,,,-99.99,,2013-01-23 16:52:00,
2013-01-23 10:02:00,34.0,4.0,-100.00,SW,215,26.0,32.0,28,-99.99,,,-99.99,,2013-01-23 17:02:00,
2013-01-23 10:22:00,35.0,5.0,-100.00,SW,220,29.0,34.0,27,-99.99,,,-99.99,,2013-01-23 17:22:00,
2013-01-23 10:33:00,35.0,5.0,-100.00,SW,225,29.0,37.0,27,-99.99,,,-99.99,,2013-01-23 17:33:00,
2013-01-23 10:42:00,35.0,5.0,-100.00,SW,225,30.0,38.0,27,-99.99,,,-99.99,,2013-01-23 17:42:00,
2013-01-23 10:52:00,35.0,5.0,-100.00,SW,225,30.0,38.0,27,-99.99,,,-99.99,,2013-01-23 17:52:00,
2013-01-23 11:03:00,35.0,5.0,-100.00,SW,230,31.0,40.0,27,-99.99,,,-99.99,,2013-01-23 18:03:00,
2013-01-23 11:12:00,35.0,5.0,-100.00,SW,235,35.0,42.0,27,-99.99,,,-99.99,,2013-01-23 18:12:00,
2013-01-23 11:22:00,35.0,6.0,-100.00,SW,230,33.0,42.0,28,-99.99,,,-99.99,,2013-01-23 18:22:00,
2013-01-23 11:32:00,36.0,6.0,-100.00,SW,235,35.0,42.0,27,-99.99,,,-99.99,,2013-01-23 18:32:00,
2013-01-23 11:42:00,36.0,6.0,-100.00,SW,225,34.0,44.0,27,-99.99,,,-99.99,,2013-01-23 18:42:00,
2013-01-23 11:52:00,36.0,7.0,-100.00,SW,230,35.0,41.0,28,-99.99,,,-99.99,,2013-01-23 18:52:00,
2013-01-23 12:02:00,36.0,7.0,-100.00,SW,230,32.0,41.0,28,-99.99,,,-99.99,,2013-01-23 19:02:00,
2013-01-23 12:12:00,36.0,7.0,-100.00,SW,230,34.0,39.0,29,-99.99,,,-99.99,,2013-01-23 19:12:00,
2013-01-23 12:22:00,36.0,7.0,-100.00,SW,225,34.0,40.0,29,-99.99,,,-99.99,,2013-01-23 19:22:00,
2013-01-23 12:32:00,35.0,7.0,-100.00,SW,230,32.0,41.0,29,-99.99,,,-99.99,,2013-01-23 19:32:00,
2013-01-23 12:42:00,34.0,7.0,-100.00,SW,230,34.0,39.0,31,-99.99,,,-99.99,,2013-01-23 19:42:00,
2013-01-23 12:52:00,35.0,7.0,-100.00,SW,225,31.0,40.0,31,-99.99,,,-99.99,,2013-01-23 19:52:00,
2013-01-23 13:02:00,35.0,7.0,-100.00,SW,230,32.0,39.0,30,-99.99,,,-99.99,,2013-01-23 20:02:00,
2013-01-23 13:12:00,34.0,7.0,-100.00,SW,225,32.0,38.0,31,-99.99,,,-99.99,,2013-01-23 20:12:00,
2013-01-23 13:22:00,35.0,7.0,-100.00,SW,220,29.0,35.0,30,-99.99,,,-99.99,,2013-01-23 20:22:00,
2013-01-23 13:32:00,36.0,8.0,-100.00,SW,225,29.0,34.0,30,-99.99,,,-99.99,,2013-01-23 20:32:00,
2013-01-23 13:42:00,34.0,7.0,-100.00,SW,220,27.0,34.0,31,-99.99,,,-99.99,,2013-01-23 20:42:00,
2013-01-23 13:53:00,35.0,8.0,-100.00,SSW,210,22.0,30.0,31,-99.99,,,-99.99,,2013-01-23 20:53:00,
2013-01-23 14:02:00,34.0,8.0,-100.00,SSW,195,17.0,26.0,32,-99.99,,,-99.99,,2013-01-23 21:02:00,
2013-01-23 14:11:00,33.0,8.0,-100.00,South,180,16.0,22.0,34,-99.99,,,-99.99,,2013-01-23 21:11:00,
2013-01-23 14:22:00,32.0,9.0,-100.00,South,185,18.0,23.0,37,-99.99,,,-99.99,,2013-01-23 21:22:00,
2013-01-23 14:33:00,32.0,9.0,-100.00,South,175,17.0,23.0,38,-99.99,,,-99.99,,2013-01-23 21:33:00,
2013-01-23 14:42:00,32.0,11.0,-100.00,South,175,12.0,21.0,41,-99.99,,,-99.99,,2013-01-23 21:42:00,
2013-01-23 14:52:00,35.0,11.0,-100.00,SSW,210,19.0,24.0,37,-99.99,,,-99.99,,2013-01-23 21:52:00,
2013-01-23 15:02:00,36.0,11.0,-100.00,SW,225,22.0,24.0,35,-99.99,,,-99.99,,2013-01-23 22:02:00,
2013-01-23 15:12:00,37.0,11.0,-100.00,SW,220,24.0,28.0,33,-99.99,,,-99.99,,2013-01-23 22:12:00,
2013-01-23 15:22:00,39.0,11.0,-100.00,SW,225,26.0,30.0,31,-99.99,,,-99.99,,2013-01-23 22:22:00,
2013-01-23 15:33:00,37.0,10.0,-100.00,SW,220,27.0,32.0,31,-99.99,,,-99.99,,2013-01-23 22:33:00,
2013-01-23 15:42:00,36.0,10.0,-100.00,SW,225,31.0,35.0,32,-99.99,,,-99.99,,2013-01-23 22:42:00,
2013-01-23 15:52:00,36.0,10.0,-100.00,SW,230,33.0,37.0,33,-99.99,,,-99.99,,2013-01-23 22:52:00,
2013-01-23 16:02:00,36.0,10.0,-100.00,SW,225,32.0,40.0,32,-99.99,,,-99.99,,2013-01-23 23:02:00,
2013-01-23 16:12:00,36.0,9.0,-100.00,SW,225,29.0,39.0,33,-99.99,,,-99.99,,2013-01-23 23:12:00,
2013-01-23 16:22:00,34.0,9.0,-100.00,SW,230,29.0,37.0,33,-99.99,,,-99.99,,2013-01-23 23:22:00,
2013-01-23 16:33:00,34.0,9.0,-100.00,SW,225,30.0,35.0,33,-99.99,,,-99.99,,2013-01-23 23:33:00,
2013-01-23 16:42:00,33.0,8.0,-100.00,SW,225,30.0,36.0,34,-99.99,,,-99.99,,2013-01-23 23:42:00,
2013-01-23 16:52:00,32.0,8.0,-100.00,SW,225,30.0,37.0,34,-99.99,,,-99.99,,2013-01-23 23:52:00,
2013-01-23 17:02:00,31.0,7.0,-100.00,SW,225,29.0,39.0,35,-99.99,,,-99.99,,2013-01-24 00:02:00,
2013-01-23 17:11:00,31.0,7.0,-100.00,SW,225,29.0,34.0,35,-99.99,,,-99.99,,2013-01-24 00:11:00,
2013-01-23 17:22:00,30.0,6.0,-100.00,SW,225,31.0,35.0,35,-99.99,,,-99.99,,2013-01-24 00:22:00,
2013-01-23 17:32:00,29.0,6.0,-100.00,SW,225,29.0,35.0,36,-99.99,,,-99.99,,2013-01-24 00:32:00,
2013-01-23 17:42:00,29.0,6.0,-100.00,SW,230,29.0,34.0,36,-99.99,,,-99.99,,2013-01-24 00:42:00,
2013-01-23 17:52:00,29.0,6.0,-100.00,SW,225,30.0,37.0,36,-99.99,,,-99.99,,2013-01-24 00:52:00,
2013-01-23 18:02:00,29.0,5.0,-100.00,SW,225,31.0,37.0,36,-99.99,,,-99.99,,2013-01-24 01:02:00,
2013-01-23 18:12:00,29.0,5.0,-100.00,SW,225,34.0,37.0,36,-99.99,,,-99.99,,2013-01-24 01:12:00,
2013-01-23 18:22:00,29.0,5.0,-100.00,SW,230,31.0,35.0,36,-99.99,,,-99.99,,2013-01-24 01:22:00,
2013-01-23 18:32:00,29.0,5.0,-100.00,SW,230,33.0,39.0,36,-99.99,,,-99.99,,2013-01-24 01:32:00,
2013-01-23 18:42:00,29.0,5.0,-100.00,SW,225,32.0,38.0,36,-99.99,,,-99.99,,2013-01-24 01:42:00,
2013-01-23 18:52:00,28.0,5.0,-100.00,SW,225,32.0,38.0,36,-99.99,,,-99.99,,2013-01-24 01:52:00,
2013-01-23 19:02:00,28.0,5.0,-100.00,SW,230,32.0,39.0,36,-99.99,,,-99.99,,2013-01-24 02:02:00,
2013-01-23 19:11:00,28.0,5.0,-100.00,SW,225,34.0,40.0,36,-99.99,,,-99.99,,2013-01-24 02:11:00,
2013-01-23 19:22:00,29.0,5.0,-100.00,SW,225,35.0,41.0,36,-99.99,,,-99.99,,2013-01-24 02:22:00,
2013-01-23 19:32:00,29.0,6.0,-100.00,SW,230,34.0,39.0,36,-99.99,,,-99.99,,2013-01-24 02:32:00,
2013-01-23 19:42:00,29.0,6.0,-100.00,SW,230,34.0,39.0,36,-99.99,,,-99.99,,2013-01-24 02:42:00,
2013-01-23 19:52:00,29.0,6.0,-100.00,SW,230,34.0,39.0,36,-99.99,,,-99.99,,2013-01-24 02:52:00,
2013-01-23 20:02:00,28.0,5.0,-100.00,SW,230,35.0,40.0,36,-99.99,,,-99.99,,2013-01-24 03:02:00,
2013-01-23 20:11:00,28.0,5.0,-100.00,SW,230,35.0,40.0,36,-99.99,,,-99.99,,2013-01-24 03:11:00,
2013-01-23 20:22:00,28.0,5.0,-100.00,SW,225,32.0,38.0,36,-99.99,,,-99.99,,2013-01-24 03:22:00,
2013-01-23 20:32:00,28.0,5.0,-100.00,SW,225,29.0,37.0,36,-99.99,,,-99.99,,2013-01-24 03:32:00,
2013-01-23 20:42:00,28.0,5.0,-100.00,SW,225,30.0,38.0,36,-99.99,,,-99.99,,2013-01-24 03:42:00,
2013-01-23 20:52:00,28.0,5.0,-100.00,SW,225,29.0,37.0,36,-99.99,,,-99.99,,2013-01-24 03:52:00,
2013-01-23 21:02:00,29.0,5.0,-100.00,SW,230,30.0,38.0,36,-99.99,,,-99.99,,2013-01-24 04:02:00,
2013-01-23 21:11:00,29.0,5.0,-100.00,SW,230,30.0,38.0,36,-99.99,,,-99.99,,2013-01-24 04:11:00,
2013-01-23 21:22:00,29.0,6.0,-100.00,SW,230,36.0,42.0,35,-99.99,,,-99.99,,2013-01-24 04:22:00,
2013-01-23 21:32:00,29.0,6.0,-100.00,SW,230,32.0,42.0,36,-99.99,,,-99.99,,2013-01-24 04:32:00,
2013-01-23 21:42:00,29.0,6.0,-100.00,SW,230,32.0,39.0,36,-99.99,,,-99.99,,2013-01-24 04:42:00,
2013-01-23 21:52:00,29.0,5.0,-100.00,SW,230,32.0,41.0,36,-99.99,,,-99.99,,2013-01-24 04:52:00,
2013-01-23 22:03:00,29.0,6.0,-100.00,SW,235,35.0,41.0,36,-99.99,,,-99.99,,2013-01-24 05:03:00,
2013-01-23 22:12:00,29.0,6.0,-100.00,SW,230,36.0,42.0,36,-99.99,,,-99.99,,2013-01-24 05:12:00,
2013-01-23 22:22:00,30.0,6.0,-100.00,SW,230,36.0,42.0,35,-99.99,,,-99.99,,2013-01-24 05:22:00,
2013-01-23 22:32:00,30.0,6.0,-100.00,SW,230,36.0,42.0,35,-99.99,,,-99.99,,2013-01-24 05:32:00,
2013-01-23 22:42:00,30.0,6.0,-100.00,SW,230,36.0,42.0,35,-99.99,,,-99.99,,2013-01-24 05:42:00,
2013-01-23 22:52:00,28.0,6.0,-100.00,SW,230,34.0,40.0,37,-99.99,,,-99.99,,2013-01-24 05:52:00,
2013-01-23 23:02:00,27.0,5.0,-100.00,SW,230,34.0,42.0,38,-99.99,,,-99.99,,2013-01-24 06:02:00,
2013-01-23 23:12:00,27.0,5.0,-100.00,SW,230,36.0,43.0,38,-99.99,,,-99.99,,2013-01-24 06:12:00,
2013-01-23 23:22:00,28.0,6.0,-100.00,SW,230,35.0,41.0,38,-99.99,,,-99.99,,2013-01-24 06:22:00,
2013-01-23 23:32:00,29.0,7.0,-100.00,SW,235,35.0,42.0,38,-99.99,,,-99.99,,2013-01-24 06:32:00,
2013-01-23 23:42:00,29.0,7.0,-100.00,SW,230,32.0,40.0,38,-99.99,,,-99.99,,2013-01-24 06:42:00,
2013-01-23 23:52:00,30.0,7.0,-100.00,SW,225,32.0,41.0,37,-99.99,,,-99.99,,2013-01-24 06:52:00,